This demonstration page uses our WeatherBlox Daily Observations layout. Learn more.

Hourly Observations for February 29, 2020

Temp ( °F °C ) Dew Point ( °F °C ) Humidity (%) Winds ( mph kmh ) Pressure ( in mb ) Visibility ( mi km ) Precip ( " mm )
12:15 am 00:15 Clear 34 1.1 24 -4.7 66 66 SW 8 13 30.24 1024 10 16.0934 0 0
12:35 am 00:35 Clear 34 1.1 24 -4.5 67 67 SW 6 9 30.24 1024 10 16.0934 0 0
12:55 am 00:55 Clear 34 1.1 24 -4.5 67 67 SW 6 9 30.23 1024 10 16.0934 0 0
1:15 am 01:15 Clear 34 1.1 24 -4.6 66 66 SSW 3 6 30.23 1024 10 16.0934 0 0
1:35 am 01:35 Clear 32 0.1 24 -4.5 72 72 SSW 5 7 30.23 1024 10 16.0934 0 0
1:55 am 01:55 Clear 33 0.7 24 -4.5 69 69 SSW 6 9 30.22 1023 10 16.0934 0 0
2:15 am 02:15 Clear 32 0 23 -4.9 70 70 SSW 6 9 30.22 1023 10 16.0934 0 0
2:35 am 02:35 Clear 32 -0.1 23 -4.9 70 70 S 5 7 30.21 1023 10 16.0934 0 0
2:55 am 02:55 Clear 30 -1.3 22 -5.4 74 74 S 3 6 30.22 1023 10 16.0934 0 0
3:15 am 03:15 Clear 28 -2.3 22 -5.5 79 79 Calm 30.22 1023 10 16.0934 0 0
3:35 am 03:35 Clear 30 -1.3 22 -5.3 75 75 SSE 5 7 30.2 1023 10 16.0934 0 0
3:55 am 03:55 Clear 31 -0.3 23 -5 71 71 S 5 7 30.17 1022 10 16.0934 0 0
4:15 am 04:15 Clear 32 -0.2 23 -4.9 71 71 S 6 9 30.17 1022 10 16.0934 0 0
4:35 am 04:35 Clear 29 -1.9 22 -5.5 77 77 S 6 9 30.17 1022 10 16.0934 0 0
4:55 am 04:55 Clear 28 -2.2 22 -5.6 78 78 SSE 5 7 30.17 1022 10 16.0934 0 0
5:15 am 05:15 Clear 29 -1.5 23 -5 77 77 S 7 11 30.16 1021 10 16.0934 0 0
5:35 am 05:35 Clear 29 -1.9 23 -5.1 79 79 S 5 7 30.15 1021 10 16.0934 0 0
5:55 am 05:55 Clear 28 -2 23 -4.9 81 81 SSW 7 11 30.15 1021 10 16.0934 0 0
6:15 am 06:15 Clear 32 -0.2 24 -4.5 73 73 S 10 17 30.12 1020 10 16.0934 0 0
6:35 am 06:35 Clear 32 0 24 -4.5 72 72 SSW 8 13 30.11 1020 10 16.0934 0 0
6:55 am 06:55 Clear 32 0.2 25 -4.1 73 73 S 9 15 30.1 1019 10 16.0934 0 0
7:15 am 07:15 Sunny 33 0.6 25 -3.9 72 72 S 10 17 30.1 1019 10 16.0934 0 0
7:35 am 07:35 Sunny 36 2 26 -3.5 67 67 S 13 20 30.08 1018 10 16.0934 0 0
7:55 am 07:55 Sunny 36 2.4 26 -3.3 66 66 S 14 22 30.06 1018 10 16.0934 0 0
8:15 am 08:15 Sunny 37 3 26 -3.1 65 65 S 14 22 30.06 1018 10 16.0934 0 0
8:35 am 08:35 Sunny 38 3.6 27 -3 62 62 S 16 26 30.04 1017 10 16.0934 0 0
8:55 am 08:55 Sunny 40 4.6 27 -2.6 60 60 S 14 22 30.02 1017 10 16.0934 0 0
9:15 am 09:15 Sunny 42 5.5 28 -2.1 58 58 S 12 19 30.01 1016 10 16.0934 0 0
9:35 am 09:35 Sunny 43 6.3 28 -2 56 56 S 15 24 30 1016 10 16.0934 0 0
9:55 am 09:55 Sunny 46 7.7 29 -1.6 52 52 S 14 22 29.98 1015 10 16.0934 0 0
10:15 am 10:15 Sunny 49 9.2 29 -1.9 46 46 SSW 16 26 29.96 1015 10 16.0934 0 0
10:35 am 10:35 Sunny 50 10.2 28 -2.5 41 41 S 17 28 29.94 1014 10 16.0934 0 0
10:55 am 10:55 Sunny 51 10.8 27 -2.7 39 39 S 16 26 29.92 1013 10 16.0934 0 0
11:15 am 11:15 Sunny 51 10.5 26 -3.2 38 38 S 16 26 29.91 1013 10 16.0934 0 0
11:35 am 11:35 Sunny 52 11.2 28 -2.5 39 39 S 18 30 29.89 1012 10 16.0934 0 0
11:55 am 11:55 Sunny 53 11.4 28 -2.4 38 38 S 21 33 29.87 1012 10 16.0934 0 0
12:15 pm 12:15 Sunny 54 12 28 -2.2 37 37 SSW 18 30 29.86 1011 10 16.0934 0 0
12:35 pm 12:35 Sunny 55 12.5 29 -1.6 38 38 S 17 28 29.84 1011 10 16.0934 0 0
12:55 pm 12:55 Sunny 55 13 30 -1.3 37 37 S 15 24 29.83 1010 10 16.0934 0 0
1:15 pm 13:15 Sunny 56 13.6 29 -1.4 36 36 SSW 14 22 29.8 1009 10 16.0934 0 0
1:35 pm 13:35 Sunny 58 14.2 29 -1.5 34 34 S 16 26 29.78 1008 10 16.0934 0 0
1:55 pm 13:55 Sunny 60 15.3 30 -1.3 32 32 SSW 15 24 29.75 1007 10 16.0934 0 0
2:15 pm 14:15 Sunny 61 16 30 -0.9 32 32 S 15 24 29.73 1007 10 16.0934 0 0
2:35 pm 14:35 Sunny 62 16.9 29 -1.7 28 28 SSW 13 20 29.71 1006 10 16.0934 0 0
2:55 pm 14:55 Sunny 63 17 29 -1.6 28 28 SSW 13 20 29.7 1006 10 16.0934 0 0
3:15 pm 15:15 Sunny 63 17.1 29 -1.6 28 28 SSW 15 24 29.7 1006 10 16.0934 0 0
3:35 pm 15:35 Sunny 64 17.7 29 -1.7 27 27 SSW 12 19 29.7 1006 10 16.0934 0 0
3:55 pm 15:55 Sunny 64 17.6 28 -2 26 26 SSW 12 19 29.69 1005 10 16.0934 0 0
4:15 pm 16:15 Sunny 62 16.7 28 -2.1 28 28 SSW 10 17 29.7 1006 10 16.0934 0 0
4:35 pm 16:35 Sunny 62 16.5 29 -1.7 29 29 SSW 8 13 29.7 1006 10 16.0934 0 0
4:55 pm 16:55 Sunny 63 17.4 29 -1.5 28 28 SW 10 17 29.68 1005 10 16.0934 0 0
5:15 pm 17:15 Sunny 61 16.2 29 -1.6 30 30 SSW 7 11 29.69 1005 10 16.0934 0 0
5:35 pm 17:35 Sunny 60 15.6 29 -1.5 31 31 SSW 7 11 29.68 1005 10 16.0934 0 0
5:55 pm 17:55 Sunny 58 14.6 29 -1.5 33 33 S 8 13 29.68 1005 10 16.0934 0 0
6:15 pm 18:15 Sunny 56 13.1 28 -2 35 35 SSW 6 9 29.7 1006 10 16.0934 0 0
6:35 pm 18:35 Clear 50 10.2 28 -2 43 43 SSW 3 6 29.73 1007 10 16.0934 0 0
6:55 pm 18:55 Clear 52 11.3 29 -1.7 41 41 SSW 7 11 29.72 1006 10 16.0934 0 0
7:15 pm 19:15 Clear 52 11.3 28 -2 40 40 SSW 6 9 29.71 1006 10 16.0934 0 0
7:35 pm 19:35 Clear 49 9.5 29 -1.8 46 46 SSW 6 9 29.74 1007 10 16.0934 0 0
7:55 pm 19:55 Clear 52 11 28 -2 41 41 SSW 7 11 29.71 1006 10 16.0934 0 0
8:15 pm 20:15 Clear 49 9.6 28 -2 45 45 SSW 8 13 29.73 1007 10 16.0934 0 0
8:35 pm 20:35 Clear 49 9.5 29 -1.7 46 46 SSW 6 9 29.73 1007 10 16.0934 0 0
8:55 pm 20:55 Clear 50 9.8 29 -1.8 45 45 SW 8 13 29.72 1007 10 16.0934 0 0
9:15 pm 21:15 Clear 50 9.9 28 -2 44 44 SW 7 11 29.71 1006 10 16.0934 0 0
9:35 pm 21:35 Clear 51 10.5 28 -2.2 41 41 SW 7 11 29.71 1006 10 16.0934 0 0
9:55 pm 21:55 Clear 49 9.6 27 -2.6 43 43 W 3 6 29.72 1006 10 16.0934 0 0
10:15 pm 22:15 Clear 45 7.3 27 -2.6 50 50 WNW 3 6 29.74 1007 10 16.0934 0 0
10:35 pm 22:35 Clear 43 6.1 28 -2.1 56 56 W 5 7 29.75 1007 10 16.0934 0 0
10:55 pm 22:55 Clear 44 6.6 28 -2.1 54 54 SW 3 6 29.73 1007 10 16.0934 0 0
11:15 pm 23:15 Clear 45 7.3 28 -2.5 50 50 WSW 5 7 29.72 1006 10 16.0934 0 0
11:35 pm 23:35 Clear 46 7.7 27 -2.8 48 48 WSW 3 6 29.71 1006 10 16.0934 0 0
11:55 pm 23:55 Clear 46 7.5 27 -3 48 48 WSW 3 6 29.71 1006 10 16.0934 0 0

Powered by AerisWeather